Hourly Data Report for July 17, 2011

HALIFAX STANFIELD INT'L A
NOVA SCOTIA

44°52'48.060" N
63°30'00.050" W
145.40 m
8202250
71395
YHZ

Download Data

Hourly Data (July 2011)
Hourly Data Report for July 17, 2011
TIME
LST
Temp Definition
°C
Dew Point Definition
°C
Rel Hum Definition
%
Precip. Amount Definition
mm

Wind Dir Definition
10's deg

Wind Spd Definition
km/h
Visibility Definition
km
Stn Press Definition
kPa
Hmdx Definition


Wind Chill Definition


Weather Definition


00:00 13.6 12.1 91   29 9 24.1 99.86     Clear
01:00 13.6 11.6 88   28 9 24.1 99.84     Clear
02:00 13.4 11.1 86   28 9 24.1 99.83     Clear
03:00 13.4 11.4 88   28 7 24.1 99.84     Clear
04:00 12.5 11.4 93   21 9 24.1 99.86     Clear
05:00 11.1 10.2 94   18 7 24.1 99.88     Mainly Clear
06:00 13.8 12.0 89   20 9 24.1 99.89     Mainly Clear
07:00 16.9 13.9 82   23 17 24.1 99.89     Mainly Clear
08:00 18.9 14.6 76   23 15 24.1 99.90     Mostly Cloudy
09:00 21.1 15.0 68   23 13 24.1 99.88 25   Mainly Clear
10:00 23.8 15.8 61   21 22 24.1 99.86 28   Mainly Clear
11:00 25.7 14.1 49   21 22 24.1 99.83 29   Mainly Clear
12:00 27.1 15.1 48   22 26 24.1 99.78 31   Mostly Cloudy
13:00 28.4 14.6 43   24 19 24.1 99.74 32   Mostly Cloudy
14:00 29.6 16.1 44   24 19 24.1 99.68 34   Mostly Cloudy
15:00 28.3 16.2 48   23 24 24.1 99.66 33   Mostly Cloudy
16:00 26.9 17.6 57   20 22 24.1 99.62 33   Mostly Cloudy
17:00 25.4 17.5 62   22 19 24.1 99.59 31   Mostly Cloudy
18:00 25.4 17.7 62   18 15 24.1 99.54 31   Mostly Cloudy
19:00 22.2 15.8 67   19 17 19.3 99.50 27   Mostly Cloudy
20:00 20.3 15.2 73   20 17 24.1 99.48     Mostly Cloudy
21:00 19.7 14.5 72   19 15 24.1 99.48     Mostly Cloudy
22:00 19.5 14.1 71   21 19 24.1 99.46     Mostly Cloudy
23:00 18.9 14.4 75   21 13 24.1 99.43     Mostly Cloudy

Notes on Data Quality.

Legend

  • E = Estimated
  • M = Missing
  • NA = Not Available*
  • [empty] = Indicates an unobserved value
Date modified: